Location: Pedimozza
(42.0500°N, 9.3500°E)
Time: 16:11:10
(UTC+00:00)

CZ-2C R/B - Pass Details

Date: 19 August 2019
Orbit: 784 x 871 km, 98.3° (Epoch: 15 September)

Event Time Altitude Azimuth Distance (km) Brightness Sun altitude
Rises 21:26:57 0° 2° (N) 3,306 6.6 -28.8°
Reaches altitude 10° 21:29:30 10° 352° (N) 2,382 5.8 -29.1°
Maximum altitude 21:34:00 30° 293° (WNW) 1,426 4.3 -29.5°
Enters shadow 21:37:11 17° 244° (WSW) 1,974 4.6 -29.8°
